TimeCDT,TemperatureF,Dew PointF,Humidity,Sea Level PressureIn,VisibilityMPH,Wind Direction,Wind SpeedMPH,Gust SpeedMPH,PrecipitationIn,Events,Conditions,WindDirDegrees,DateUTC
12:56 AM,57.0,57.0,100,29.81,-9999.0,ESE,6.9,-,0.02,,Unknown,110,2013-06-09 05:56:00
1:56 AM,57.0,55.0,93,29.79,-9999.0,ESE,8.1,-,0.04,,Unknown,110,2013-06-09 06:56:00
2:56 AM,57.0,55.9,96,29.78,-9999.0,East,6.9,-,0.09,,Unknown,100,2013-06-09 07:56:00
3:56 AM,57.0,55.9,96,29.77,-9999.0,East,9.2,-,0.12,,Unknown,90,2013-06-09 08:56:00
4:56 AM,55.9,55.9,100,29.77,-9999.0,ENE,9.2,-,0.10,,Unknown,60,2013-06-09 09:56:00
5:56 AM,57.0,55.9,96,29.76,-9999.0,East,10.4,-,0.12,,Unknown,80,2013-06-09 10:56:00
6:56 AM,57.0,55.9,96,29.76,-9999.0,ENE,10.4,-,0.09,,Unknown,70,2013-06-09 11:56:00
7:56 AM,57.0,57.0,100,29.77,-9999.0,ENE,11.5,-,0.14,,Unknown,70,2013-06-09 12:56:00
8:56 AM,57.9,57.0,97,29.77,-9999.0,ENE,12.7,-,0.12,,Unknown,60,2013-06-09 13:56:00
9:56 AM,59.0,57.0,93,29.78,-9999.0,ENE,11.5,-,0.09,,Unknown,60,2013-06-09 14:56:00
10:56 AM,60.1,57.9,93,29.78,-9999.0,ENE,11.5,-,0.02,,Unknown,70,2013-06-09 15:56:00
11:56 AM,60.1,57.9,93,29.79,-9999.0,East,16.1,-,0.02,,Unknown,80,2013-06-09 16:56:00
12:56 PM,61.0,57.9,90,29.78,-9999.0,ENE,15.0,-,N/A,,Unknown,70,2013-06-09 17:56:00
1:56 PM,60.1,57.0,90,29.80,-9999.0,ENE,13.8,-,N/A,,Unknown,70,2013-06-09 18:56:00
2:56 PM,62.1,57.0,84,29.80,-9999.0,ENE,9.2,-,N/A,,Unknown,60,2013-06-09 19:56:00
3:56 PM,62.1,57.0,84,29.80,-9999.0,NNE,8.1,-,N/A,,Unknown,30,2013-06-09 20:56:00
4:56 PM,63.0,57.0,81,29.80,-9999.0,NE,6.9,-,N/A,,Unknown,40,2013-06-09 21:56:00
5:56 PM,63.0,57.9,84,29.80,-9999.0,NE,6.9,-,N/A,,Unknown,50,2013-06-09 22:56:00
6:56 PM,63.0,57.0,81,29.81,-9999.0,NE,6.9,-,N/A,,Unknown,50,2013-06-09 23:56:00
7:56 PM,62.1,57.0,84,29.81,-9999.0,ENE,8.1,-,N/A,,Unknown,70,2013-06-10 00:56:00
8:56 PM,60.1,57.0,90,29.82,-9999.0,Calm,Calm,-,N/A,,Unknown,0,2013-06-10 01:56:00
9:56 PM,57.0,55.9,96,29.83,-9999.0,Calm,Calm,-,N/A,,Unknown,0,2013-06-10 02:56:00
10:56 PM,55.9,55.0,97,29.85,-9999.0,Calm,Calm,-,N/A,,Unknown,0,2013-06-10 03:56:00
11:56 PM,53.1,53.1,100,29.83,-9999.0,SW,4.6,-,N/A,,Unknown,230,2013-06-10 04:56:00